Location: Township of Marena
(38.1747°N, 99.6798°W)
Time: 03:15:43
(UTC+00:00)

Cosmos 44 Rocket - Pass Details

Date: 26 October 2020
Orbit: 642 x 748 km, 65.1° (Epoch: 24 November)

Event Time Altitude Azimuth Distance (km) Brightness Sun altitude
Rises 01:20:28 0° 184° (S) 2,957 6.6 -19.0°
Reaches altitude 10° 01:22:55 10° 174° (S) 2,063 5.7 -19.5°
Enters shadow 01:25:33 26° 146° (SE) 1,305 4.4 -20.0°
